Regional Weather Roundup
Issued by NWS

Home | Current Version | Previous Version | Graphics & Text | Print | Product List | Glossary On
Versions: 1 2 3 4 5 6 7 8 9 10 11 12 13 14 15 16 17 18 19 20 21 22 23 24 25 26 27 28 29 30 31 32 33 34 35 36 37 38 39 40 41 42 43 44 45 46 47 48 49 50
000
ASUS45 KCYS 212310
RWRWY

WYOMING REGIONAL WEATHER ROUNDUP
NATIONAL WEATHER SERVICE CHEYENNE WY
500 PM MDT THU MAY 21 2015

NOTE:  "FAIR" INDICATES FEW OR NO CLOUDS BELOW 12,000 FEET
WITH NO SIGNIFICANT WEATHER AND/OR OBSTRUCTIONS TO VISIBILITY.

WYZ001-220000-
YELLOWSTONE NATIONAL PARK

CITY           SKY/WX    TMP DP  RH WIND       PRES   REMARKS
LK YELLOWSTONE   N/A     44  36  73 CALM      30.11R
W YELLOWSTONE  NOT AVBL

$$
WYZ002>013-054>058-071-098>099-220000-
NORTHERN WYOMING

CITY           SKY/WX    TMP DP  RH WIND       PRES   REMARKS
JACKSON        MOSUNNY   63  32  31 SW14      29.97F
CODY           PTSUNNY   61  43  51 NE8       30.00F
GREYBULL       FAIR      68  35  29 CALM      29.95F
WORLAND        FAIR      67  41  38 E9        29.96F
SHERIDAN       CLOUDY    61  42  49 SE14G22   30.04F
BUFFALO        CLOUDY    57  41  55 SE17      30.08F
GILLETTE       FAIR      58  41  53 S18G26    30.10F
HULETT         CLOUDY    61  32  33 E8        30.11F
NEWCASTLE      FAIR      57  37  47 SE23G31   30.14F

$$
WYZ014>020-022>026-101>103-220000-
CENTRAL WYOMING

CITY           SKY/WX    TMP DP  RH WIND       PRES   REMARKS
BIG PINEY      FAIR      58  34  40 S5        30.01F
PINEDALE       FAIR      57  32  38 CALM      30.02F
DUBOIS         FAIR      52  36  54 SE15G25   30.02F
LANDER         CLOUDY    58  44  60 E6        29.98F THUNDER
RIVERTON       FAIR      61  41  47 E9        30.00F
CASPER         FAIR      60  42  51 E18G26    30.04F
DOUGLAS        PTSUNNY   57  42  57 SE22G30   30.09F

$$
WYZ021-027>030-104>119-220000-
SOUTHERN WYOMING

CITY           SKY/WX    TMP DP  RH WIND       PRES   REMARKS
EVANSTON       LGT RAIN  45  40  82 SW17      30.05S
KEMMERER       MOCLDY    50  37  62 N9        30.03F
FORT BRIDGER   CLOUDY    50  46  87 W9        30.06R
ROCK SPRINGS   FAIR      53  39  59 E13       30.01F
DIXON          FAIR      64  35  33 NE5       30.01F
RAWLINS        FAIR      53  40  61 NE20      30.07F
SARATOGA       FAIR      52  37  58 MISG      30.07F
LARAMIE        CLOUDY    47  45  93 MISG      30.13F
CHEYENNE       CLOUDY    49  40  71 CALM      30.15F
TORRINGTON     CLOUDY    53  43  68 SE16      30.14F
PINE BLUFFS    CLOUDY    54  43  66 SE10      30.15F

$$


USA.gov is the U.S. government's official web portal to all federal, state and local government web resources and services.